Satellite: DTUSAT-2 Catalog number: 40030 Epoch time: 14324.66778283 Element set: 446 Inclination: 097.9636 deg RA of node: 219.4493 deg Eccentricity: 0.0013774 Arg of perigee: 133.3369 deg Mean anomaly: 226.9031 deg Mean motion: 14.85533954 rev/day Decay rate: 4.328e-05 rev/day^2 Epoch rev: 2281 Checksum: 315
Satellite: ANTELSAT Catalog number: 40034 Epoch time: 14324.67104348 Element set: 455 Inclination: 097.9639 deg RA of node: 216.1327 deg Eccentricity: 0.0062662 Arg of perigee: 067.0736 deg Mean anomaly: 293.7102 deg Mean motion: 14.71725354 rev/day Decay rate: 3.406e-05 rev/day^2 Epoch rev: 2261 Checksum: 283
/EX SB KEPS @ AMSAT $ORB14324.W Orbital Elements 14324.WEATHER
HR AMSAT ORBITAL ELEMENTS FOR WEATHER SATELLITES FROM WA5QGD FORT WORTH,TX November 20, 2014 BID: ORB14324.W TO ALL RADIO AMATEURS BT
Satellite: MET-2/21 Catalog number: 22782 Epoch time: 14324.77138770 Element set: 228 Inclination: 082.5512 deg RA of node: 049.0597 deg Eccentricity: 0.0022657 Arg of perigee: 182.7893 deg Mean anomaly: 289.9877 deg Mean motion: 13.83753434 rev/day Decay rate: 9.1e-07 rev/day^2 Epoch rev: 7177 Checksum: 343
Satellite: OKEAN-4 Catalog number: 23317 Epoch time: 14324.87153350 Element set: 713 Inclination: 082.5384 deg RA of node: 280.9849 deg Eccentricity: 0.0018729 Arg of perigee: 302.9644 deg Mean anomaly: 114.2274 deg Mean motion: 14.85965718 rev/day Decay rate: 3.169e-05 rev/day^2 Epoch rev: 8637 Checksum: 329
Satellite: NOAA-14 Catalog number: 23455 Epoch time: 14324.31016487 Element set: 987 Inclination: 098.7697 deg RA of node: 044.9083 deg Eccentricity: 0.0008658 Arg of perigee: 318.6818 deg Mean anomaly: 081.3576 deg Mean motion: 14.14002229 rev/day Decay rate: 4.9e-07 rev/day^2 Epoch rev: 2601 Checksum: 316
Satellite: NOAA-15 Catalog number: 25338 Epoch time: 14324.52188237 Element set: 427 Inclination: 098.7628 deg RA of node: 318.1630 deg Eccentricity: 0.0011428 Arg of perigee: 058.5261 deg Mean anomaly: 098.8849 deg Mean motion: 14.25509972 rev/day Decay rate: 2.31e-06 rev/day^2 Epoch rev: 85911 Checksum: 325
Satellite: RESURS Catalog number: 25394 Epoch time: 14324.02360800 Element set: 811 Inclination: 098.4366 deg RA of node: 281.9994 deg Eccentricity: 0.0002119 Arg of perigee: 136.4997 deg Mean anomaly: 265.3259 deg Mean motion: 14.24416675 rev/day Decay rate: 1.19e-06 rev/day^2 Epoch rev: 85050 Checksum: 306
Satellite: FENGYUN1 Catalog number: 25730 Epoch time: 14324.85343410 Element set: 300 Inclination: 098.9258 deg RA of node: 285.1095 deg Eccentricity: 0.0022662 Arg of perigee: 027.4314 deg Mean anomaly: 024.5292 deg Mean motion: 14.12468981 rev/day Decay rate: 4.250e-05 rev/day^2 Epoch rev: 79963 Checksum: 294
Satellite: OKEAN-0 Catalog number: 25860 Epoch time: 14323.88623983 Element set: 419 Inclination: 098.0657 deg RA of node: 287.0302 deg Eccentricity: 0.0000995 Arg of perigee: 103.0185 deg Mean anomaly: 309.8297 deg Mean motion: 14.75572407 rev/day Decay rate: 1.298e-05 rev/day^2 Epoch rev: 82511 Checksum: 319
Satellite: NOAA-16 Catalog number: 26536 Epoch time: 14324.49809549 Element set: 925 Inclination: 098.9717 deg RA of node: 025.3893 deg Eccentricity: 0.0011449 Arg of perigee: 103.1812 deg Mean anomaly: 257.0638 deg Mean motion: 14.13054601 rev/day Decay rate: 1.65e-06 rev/day^2 Epoch rev: 73018 Checksum: 310
Satellite: NOAA-17 Catalog number: 27453 Epoch time: 14324.51776793 Element set: 815 Inclination: 098.3236 deg RA of node: 316.0718 deg Eccentricity: 0.0012856 Arg of perigee: 077.9885 deg Mean anomaly: 282.2735 deg Mean motion: 14.24818190 rev/day Decay rate: 1.44e-06 rev/day^2 Epoch rev: 64494 Checksum: 338
Satellite: NOAA-18 Catalog number: 28654 Epoch time: 14324.56380448 Element set: 340 Inclination: 099.1662 deg RA of node: 307.3433 deg Eccentricity: 0.0014365 Arg of perigee: 181.8591 deg Mean anomaly: 284.5345 deg Mean motion: 14.12101735 rev/day Decay rate: 1.09e-06 rev/day^2 Epoch rev: 48963 Checksum: 307
Satellite: NOAA-19 Catalog number: 33591 Epoch time: 14324.55477512 Element set: 470 Inclination: 098.9643 deg RA of node: 269.2511 deg Eccentricity: 0.0014669 Arg of perigee: 041.8721 deg Mean anomaly: 059.5257 deg Mean motion: 14.11808337 rev/day Decay rate: 4.23e-06 rev/day^2 Epoch rev: 29805 Checksum: 318
/EX SB KEPS @ AMSAT $ORB14324.M Orbital Elements 14324.MISC
HR AMSAT ORBITAL ELEMENTS FOR MANNED AND MISCELLANEOUS SATELLITES FROM WA5QGD FORT WORTH,TX November 20, 2014 BID: ORB14324.M TO ALL RADIO AMATEURS BT
Satellite: HUBBLE Catalog number: 20580 Epoch time: 14324.62363573 Element set: 160 Inclination: 028.4705 deg RA of node: 088.2914 deg Eccentricity: 0.0003188 Arg of perigee: 150.7650 deg Mean anomaly: 329.6566 deg Mean motion: 15.06206619 rev/day Decay rate: 4.456e-05 rev/day^2 Epoch rev: 14832 Checksum: 291
Satellite: ISS Catalog number: 25544 Epoch time: 14324.78786666 Element set: 438 Inclination: 051.6468 deg RA of node: 043.2124 deg Eccentricity: 0.0006793 Arg of perigee: 050.5977 deg Mean anomaly: 045.8703 deg Mean motion: 15.51260503 rev/day Decay rate: 2.3755e-04 rev/day^2 Epoch rev: 91562 Checksum: 314
Satellite: CO-58 Catalog number: 28895 Epoch time: 14324.80015273 Element set: 925 Inclination: 097.8223 deg RA of node: 158.4861 deg Eccentricity: 0.0016295 Arg of perigee: 233.4816 deg Mean anomaly: 126.4887 deg Mean motion: 14.62222756 rev/day Decay rate: 2.006e-05 rev/day^2 Epoch rev: 48313 Checksum: 324
Satellite: FALCON Catalog number: 30776 Epoch time: 14324.19309520 Element set: 8 Inclination: 035.4279 deg RA of node: 226.3168 deg Eccentricity: 0.0003931 Arg of perigee: 258.3829 deg Mean anomaly: 232.0513 deg Mean motion: 15.19060159 rev/day Decay rate: 1.6722e-04 rev/day^2 Epoch rev: 42444 Checksum: 281
Satellite: MAST Catalog number: 31126 Epoch time: 14324.81866613 Element set: 207 Inclination: 097.9343 deg RA of node: 297.7241 deg Eccentricity: 0.0090805 Arg of perigee: 225.1006 deg Mean anomaly: 201.8589 deg Mean motion: 14.55597354 rev/day Decay rate: 1.088e-05 rev/day^2 Epoch rev: 40317 Checksum: 301
Satellite: CAPE1 Catalog number: 31130 Epoch time: 14323.87920998 Element set: 212 Inclination: 097.9546 deg RA of node: 293.6899 deg Eccentricity: 0.0096922 Arg of perigee: 247.2512 deg Mean anomaly: 111.8421 deg Mean motion: 14.54871302 rev/day Decay rate: 2.184e-05 rev/day^2 Epoch rev: 40244 Checksum: 306
Satellite: COMPASS Catalog number: 32787 Epoch time: 14323.80778767 Element set: 103 Inclination: 097.6827 deg RA of node: 012.7993 deg Eccentricity: 0.0014114 Arg of perigee: 033.1119 deg Mean anomaly: 327.0979 deg Mean motion: 14.88943808 rev/day Decay rate: 7.460e-05 rev/day^2 Epoch rev: 35533 Checksum: 327
Satellite: AAUSAT2 Catalog number: 32788 Epoch time: 14324.67380605 Element set: 91 Inclination: 097.6831 deg RA of node: 014.8269 deg Eccentricity: 0.0013390 Arg of perigee: 028.4246 deg Mean anomaly: 331.7700 deg Mean motion: 14.89784404 rev/day Decay rate: 7.351e-05 rev/day^2 Epoch rev: 35553 Checksum: 310
Satellite: DO-64 Catalog number: 32789 Epoch time: 14324.78992149 Element set: 136 Inclination: 097.7029 deg RA of node: 023.0565 deg Eccentricity: 0.0011329 Arg of perigee: 009.8194 deg Mean anomaly: 114.9403 deg Mean motion: 14.95690264 rev/day Decay rate: 1.4559e-04 rev/day^2 Epoch rev: 35588 Checksum: 343
Satellite: CO-66 Catalog number: 32791 Epoch time: 14324.78739366 Element set: 86 Inclination: 097.6816 deg RA of node: 012.1687 deg Eccentricity: 0.0014824 Arg of perigee: 033.7301 deg Mean anomaly: 326.4855 deg Mean motion: 14.87400100 rev/day Decay rate: 5.047e-05 rev/day^2 Epoch rev: 35532 Checksum: 310
Satellite: RS-30 Catalog number: 32953 Epoch time: 14324.69640643 Element set: 483 Inclination: 082.5028 deg RA of node: 103.9010 deg Eccentricity: 0.0019189 Arg of perigee: 173.2920 deg Mean anomaly: 186.8430 deg Mean motion: 12.43052818 rev/day Decay rate: 1.0e-07 rev/day^2 Epoch rev: 29470 Checksum: 281
Satellite: METEOR-M Catalog number: 35865 Epoch time: 14324.72111962 Element set: 92 Inclination: 098.5304 deg RA of node: 007.2298 deg Eccentricity: 0.0002945 Arg of perigee: 018.4228 deg Mean anomaly: 341.7050 deg Mean motion: 14.21953574 rev/day Decay rate: 2.00e-06 rev/day^2 Epoch rev: 26858 Checksum: 285
Satellite: RS-38 Catalog number: 35869 Epoch time: 14324.72466168 Element set: 996 Inclination: 098.5218 deg RA of node: 006.9609 deg Eccentricity: 0.0005025 Arg of perigee: 009.0130 deg Mean anomaly: 351.1151 deg Mean motion: 14.22245086 rev/day Decay rate: 1.44e-06 rev/day^2 Epoch rev: 26862 Checksum: 302
Satellite: JUGNU Catalog number: 37839 Epoch time: 14323.47575390 Element set: 736 Inclination: 019.9630 deg RA of node: 033.7388 deg Eccentricity: 0.0018905 Arg of perigee: 256.4243 deg Mean anomaly: 221.8849 deg Mean motion: 14.12374090 rev/day Decay rate: 5.79e-06 rev/day^2 Epoch rev: 16053 Checksum: 318
Satellite: SRMSAT Catalog number: 37841 Epoch time: 14324.31220288 Element set: 740 Inclination: 019.9734 deg RA of node: 051.1298 deg Eccentricity: 0.0011595 Arg of perigee: 198.6725 deg Mean anomaly: 210.9839 deg Mean motion: 14.10403691 rev/day Decay rate: 5.12e-06 rev/day^2 Epoch rev: 16042 Checksum: 283
Satellite: RAX-2 Catalog number: 37853 Epoch time: 14324.84282300 Element set: 967 Inclination: 101.7035 deg RA of node: 069.3851 deg Eccentricity: 0.0209330 Arg of perigee: 322.8209 deg Mean anomaly: 148.8073 deg Mean motion: 14.91757049 rev/day Decay rate: 1.0912e-04 rev/day^2 Epoch rev: 16599 Checksum: 312
Satellite: AUBIESAT Catalog number: 37854 Epoch time: 14324.88189703 Element set: 964 Inclination: 101.7088 deg RA of node: 071.8933 deg Eccentricity: 0.0206230 Arg of perigee: 319.0025 deg Mean anomaly: 158.2980 deg Mean motion: 14.93354521 rev/day Decay rate: 1.1732e-04 rev/day^2 Epoch rev: 16607 Checksum: 304
